Location: Unspecified
(0.0000°N, 0.0000°E)
Time: 10:19:31
(UTC+00:00)

METEOR M2 - Pass Details

Date: 31 May 2024
Orbit: 818 x 826 km, 98.4° (Epoch: 19 June)

Event Time Altitude Azimuth Distance (km) Brightness Sun altitude
Rises 18:14:10 0° 203° (SSW) 3,352 ? -3.8°
Reaches altitude 10° 18:17:45 10° 228° (SW) 2,415 ? -4.6°
Maximum altitude 18:20:20 14° 257° (WSW) 2,159 ? -5.2°
Drops below altitude 10° 18:22:55 10° 286° (WNW) 2,408 ? -5.8°
Sets 18:26:30 0° 312° (NW) 3,335 ? -6.6°
